GFSGBSN_prec_pwat_219.txt.gz
Precipitable_Water
0.77 0.85 0.88 0.86 0.89 0.88 0.86 0.88 0.99 1.12 1.19 1.25 1.32 1.37 1.39 1.44 1.38 1.15 1.06 1.00 0.97 0.87 0.87 0.95 1.00 1.00 0.93 0.71 0.66 0.90 0.93 0.89 0.85 0.72 0.64 0.62 0.59 0.54 0.46 0.50 0.54 0.51 0.52 0.53 0.54 0.54 0.54
0.70 0.72 0.76 0.83 0.83 0.84 0.84 0.83 0.82 0.85 1.04 1.14 1.23 1.27 1.35 1.37 1.41 1.43 1.31 1.10 1.02 0.98 0.89 0.93 1.00 1.04 0.85 0.53 0.94 0.94 0.87 0.87 0.85 0.77 0.66 0.66 0.61 0.63 0.53 0.50 0.49 0.55 0.54 0.52 0.53 0.52 0.53
0.57 0.62 0.65 0.71 0.74 0.78 0.79 0.79 0.81 0.78 0.75 0.91 1.07 1.15 1.22 1.31 1.33 1.37 1.42 1.35 1.21 1.06 0.98 0.93 0.98 0.94 0.74 0.60 0.93 1.00 0.95 0.86 0.92 0.83 0.68 0.71 0.69 0.64 0.58 0.48 0.56 0.54 0.49 0.49 0.49 0.51 0.48
0.51 0.53 0.57 0.61 0.67 0.69 0.72 0.74 0.76 0.79 0.80 0.74 0.77 0.95 1.08 1.15 1.22 1.30 1.37 1.43 1.38 1.29 1.14 1.02 1.00 0.90 0.59 0.87 0.93 0.86 0.98 0.93 0.99 0.93 0.81 0.80 0.77 0.68 0.62 0.59 0.52 0.48 0.49 0.40 0.44 0.50 0.49
0.55 0.51 0.51 0.53 0.55 0.61 0.64 0.64 0.68 0.72 0.75 0.75 0.75 0.72 0.82 0.98 1.07 1.16 1.27 1.38 1.43 1.44 1.32 1.17 0.95 0.81 0.54 0.85 0.68 0.79 0.86 0.81 0.88 0.91 0.85 0.82 0.78 0.64 0.63 0.50 0.43 0.45 0.37 0.40 0.42 0.47 0.46
0.66 0.60 0.53 0.51 0.51 0.52 0.56 0.61 0.61 0.63 0.68 0.69 0.72 0.76 0.71 0.69 0.90 1.04 1.16 1.28 1.37 1.43 1.39 1.29 1.00 0.73 0.71 0.65 0.70 0.69 0.76 0.82 0.78 0.78 0.75 0.71 0.66 0.55 0.55 0.49 0.33 0.35 0.38 0.41 0.41 0.47 0.48
0.73 0.69 0.64 0.58 0.54 0.50 0.51 0.51 0.56 0.61 0.61 0.63 0.66 0.70 0.74 0.71 0.65 0.80 1.03 1.10 1.02 0.98 1.10 0.85 0.87 0.72 0.70 0.82 0.84 0.73 0.76 0.73 0.75 0.68 0.53 0.64 0.52 0.43 0.47 0.50 0.43 0.41 0.42 0.42 0.46 0.52 0.52
0.74 0.74 0.73 0.69 0.66 0.63 0.56 0.50 0.47 0.48 0.58 0.62 0.63 0.64 0.67 0.72 0.72 0.65 0.69 0.86 0.99 1.09 0.82 1.01 0.96 0.86 0.87 0.82 0.67 0.73 0.90 0.64 0.60 0.47 0.55 0.52 0.41 0.51 0.54 0.51 0.47 0.43 0.41 0.40 0.44 0.50 0.52
0.71 0.74 0.74 0.74 0.73 0.73 0.71 0.68 0.63 0.54 0.48 0.48 0.53 0.60 0.63 0.64 0.73 0.69 0.55 0.54 1.06 1.17 0.79 0.82 0.89 0.87 0.90 0.86 0.68 0.67 0.78 0.73 0.57 0.48 0.46 0.38 0.39 0.52 0.52 0.47 0.45 0.42 0.39 0.41 0.43 0.44 0.51
0.59 0.64 0.67 0.68 0.70 0.69 0.69 0.72 0.72 0.70 0.66 0.58 0.47 0.50 0.59 0.62 0.57 0.62 0.53 0.51 0.57 1.01 0.58 0.62 0.69 0.79 0.91 0.93 0.71 0.80 0.80 0.71 0.61 0.49 0.50 0.42 0.46 0.44 0.48 0.44 0.44 0.34 0.43 0.46 0.48 0.46 0.34
0.51 0.53 0.57 0.62 0.63 0.63 0.65 0.65 0.66 0.68 0.71 0.70 0.66 0.52 0.48 0.61 0.51 0.45 0.62 0.75 0.70 0.74 0.31 0.63 0.66 0.93 0.87 0.72 0.70 0.75 0.84 0.77 0.57 0.53 0.53 0.36 0.39 0.37 0.40 0.45 0.48 0.36 0.46 0.48 0.49 0.46 0.45
0.45 0.49 0.51 0.53 0.53 0.56 0.58 0.60 0.63 0.64 0.65 0.69 0.71 0.68 0.53 0.47 0.57 0.56 0.60 0.55 0.63 0.32 0.26 0.51 0.66 0.63 0.63 0.64 0.66 0.75 0.76 0.82 0.77 0.60 0.53 0.43 0.50 0.45 0.40 0.45 0.52 0.52 0.50 0.49 0.51 0.46 0.35
0.43 0.46 0.48 0.49 0.52 0.54 0.57 0.58 0.60 0.63 0.64 0.66 0.69 0.72 0.66 0.51 0.34 0.62 0.59 0.46 0.26 0.26 0.38 0.47 0.51 0.57 0.56 0.54 0.58 0.66 0.64 0.63 0.57 0.49 0.41 0.46 0.41 0.47 0.49 0.43 0.46 0.48 0.50 0.41 0.39 0.36 0.31
0.41 0.42 0.44 0.47 0.50 0.53 0.54 0.56 0.58 0.60 0.63 0.65 0.67 0.71 0.69 0.60 0.50 0.54 0.53 0.35 0.18 0.24 0.35 0.43 0.47 0.53 0.48 0.54 0.57 0.60 0.61 0.55 0.60 0.57 0.50 0.41 0.35 0.44 0.48 0.44 0.44 0.44 0.48 0.38 0.30 0.31 0.34
0.41 0.41 0.42 0.45 0.49 0.50 0.53 0.54 0.57 0.59 0.62 0.65 0.67 0.65 0.64 0.62 0.60 0.49 0.36 0.22 0.20 0.21 0.29 0.34 0.41 0.45 0.47 0.55 0.55 0.58 0.58 0.53 0.59 0.60 0.50 0.47 0.41 0.50 0.49 0.46 0.48 0.43 0.41 0.49 0.42 0.42 0.35
0.37 0.39 0.41 0.43 0.48 0.49 0.52 0.54 0.58 0.60 0.63 0.67 0.58 0.56 0.53 0.66 0.67 0.47 0.28 0.21 0.24 0.31 0.30 0.39 0.28 0.41 0.41 0.46 0.48 0.54 0.54 0.55 0.57 0.65 0.66 0.53 0.41 0.54 0.53 0.56 0.52 0.46 0.51 0.40 0.45 0.33 0.30
0.35 0.36 0.39 0.43 0.48 0.52 0.54 0.56 0.57 0.61 0.62 0.65 0.55 0.42 0.51 0.66 0.64 0.39 0.21 0.20 0.22 0.27 0.35 0.40 0.38 0.32 0.44 0.44 0.47 0.51 0.51 0.53 0.65 0.63 0.64 0.60 0.51 0.51 0.59 0.47 0.45 0.47 0.44 0.48 0.48 0.46 0.33
0.34 0.35 0.37 0.43 0.50 0.53 0.56 0.56 0.57 0.59 0.62 0.59 0.47 0.31 0.56 0.64 0.35 0.33 0.25 0.22 0.24 0.21 0.27 0.38 0.51 0.51 0.37 0.41 0.47 0.49 0.49 0.49 0.60 0.62 0.58 0.57 0.54 0.46 0.46 0.62 0.61 0.53 0.47 0.50 0.42 0.39 0.46
0.32 0.34 0.35 0.43 0.49 0.53 0.53 0.55 0.57 0.57 0.61 0.55 0.38 0.37 0.57 0.55 0.26 0.26 0.26 0.25 0.25 0.21 0.20 0.30 0.40 0.54 0.58 0.53 0.44 0.49 0.46 0.54 0.61 0.62 0.57 0.61 0.53 0.41 0.44 0.57 0.63 0.56 0.57 0.52 0.54 0.53 0.41
0.32 0.33 0.34 0.44 0.48 0.54 0.51 0.53 0.55 0.59 0.63 0.61 0.44 0.30 0.40 0.43 0.39 0.31 0.25 0.22 0.24 0.26 0.21 0.26 0.34 0.45 0.48 0.50 0.61 0.54 0.50 0.53 0.60 0.61 0.63 0.67 0.55 0.42 0.31 0.38 0.52 0.52 0.55 0.57 0.51 0.45 0.43
0.30 0.32 0.35 0.42 0.47 0.52 0.50 0.49 0.55 0.65 0.72 0.66 0.47 0.35 0.35 0.26 0.29 0.30 0.28 0.25 0.22 0.22 0.24 0.19 0.28 0.36 0.40 0.43 0.48 0.53 0.60 0.59 0.61 0.62 0.65 0.61 0.45 0.45 0.47 0.52 0.53 0.51 0.53 0.53 0.50 0.46 0.45
0.31 0.32 0.35 0.41 0.46 0.51 0.48 0.50 0.60 0.65 0.72 0.61 0.42 0.37 0.39 0.33 0.35 0.30 0.26 0.25 0.23 0.23 0.22 0.19 0.20 0.32 0.39 0.38 0.45 0.45 0.61 0.62 0.56 0.63 0.60 0.63 0.42 0.48 0.47 0.57 0.53 0.50 0.54 0.57 0.53 0.53 0.54
0.33 0.33 0.34 0.39 0.45 0.50 0.50 0.61 0.58 0.65 0.73 0.59 0.56 0.52 0.39 0.35 0.31 0.28 0.23 0.24 0.25 0.29 0.28 0.24 0.23 0.20 0.29 0.37 0.50 0.56 0.66 0.73 0.74 0.60 0.57 0.57 0.50 0.43 0.37 0.52 0.54 0.46 0.46 0.53 0.57 0.60 0.56
0.35 0.34 0.34 0.37 0.44 0.49 0.53 0.65 0.64 0.71 0.77 0.63 0.57 0.49 0.36 0.29 0.29 0.25 0.29 0.30 0.27 0.26 0.24 0.27 0.27 0.22 0.29 0.42 0.58 0.62 0.63 0.62 0.65 0.68 0.60 0.51 0.51 0.48 0.38 0.49 0.34 0.46 0.58 0.54 0.49 0.51 0.56
0.36 0.36 0.34 0.36 0.43 0.48 0.54 0.63 0.65 0.67 0.71 0.64 0.57 0.48 0.38 0.30 0.33 0.31 0.30 0.28 0.29 0.29 0.29 0.27 0.27 0.33 0.35 0.41 0.40 0.40 0.43 0.48 0.49 0.67 0.61 0.61 0.53 0.44 0.37 0.39 0.43 0.47 0.48 0.46 0.43 0.40 0.54
0.33 0.35 0.35 0.35 0.42 0.46 0.52 0.61 0.64 0.66 0.67 0.61 0.58 0.55 0.43 0.34 0.31 0.33 0.29 0.30 0.27 0.27 0.28 0.27 0.31 0.36 0.39 0.36 0.34 0.29 0.29 0.39 0.42 0.49 0.66 0.63 0.57 0.42 0.41 0.35 0.32 0.36 0.48 0.56 0.58 0.36 0.51
0.31 0.32 0.34 0.35 0.39 0.44 0.50 0.55 0.61 0.62 0.65 0.61 0.55 0.58 0.44 0.35 0.42 0.39 0.33 0.32 0.34 0.30 0.27 0.29 0.29 0.29 0.35 0.32 0.27 0.26 0.32 0.43 0.35 0.39 0.45 0.49 0.48 0.40 0.36 0.36 0.43 0.47 0.49 0.54 0.37 0.28 0.42
0.30 0.32 0.33 0.35 0.39 0.44 0.49 0.52 0.58 0.62 0.63 0.60 0.55 0.61 0.50 0.41 0.43 0.44 0.42 0.35 0.36 0.37 0.29 0.34 0.31 0.33 0.31 0.27 0.28 0.31 0.31 0.37 0.41 0.46 0.44 0.43 0.42 0.39 0.42 0.34 0.32 0.49 0.49 0.37 0.37 0.38 0.41
0.31 0.32 0.33 0.35 0.39 0.44 0.51 0.54 0.52 0.58 0.61 0.61 0.49 0.61 0.61 0.46 0.43 0.51 0.49 0.47 0.43 0.42 0.36 0.36 0.35 0.32 0.38 0.31 0.32 0.34 0.32 0.37 0.36 0.31 0.52 0.41 0.47 0.41 0.40 0.31 0.42 0.45 0.44 0.49 0.46 0.43 0.46

GFSGBSN_prec_pwat_222.txt.gz
Precipitable_Water
0.58 0.61 0.71 0.78 0.84 0.88 0.90 0.90 0.95 1.01 1.02 1.09 1.16 1.24 1.29 1.31 1.35 1.41 1.42 1.19 1.03 1.00 0.96 0.89 0.90 0.91 0.85 0.65 0.56 0.80 0.90 0.92 0.86 0.75 0.66 0.60 0.58 0.56 0.48 0.50 0.52 0.46 0.48 0.52 0.53 0.55 0.54
0.52 0.53 0.56 0.65 0.73 0.78 0.83 0.87 0.84 0.88 0.91 0.98 0.99 1.13 1.22 1.23 1.28 1.32 1.35 1.42 1.33 1.10 1.01 0.97 0.93 0.93 0.75 0.44 0.80 0.79 0.81 0.88 0.85 0.79 0.74 0.66 0.60 0.62 0.54 0.51 0.49 0.53 0.49 0.50 0.52 0.51 0.54
0.66 0.59 0.54 0.53 0.57 0.63 0.71 0.77 0.80 0.79 0.81 0.86 0.90 0.95 1.03 1.16 1.22 1.21 1.33 1.35 1.39 1.39 1.28 1.07 0.99 0.88 0.65 0.49 0.79 0.85 0.86 0.81 0.89 0.91 0.80 0.72 0.69 0.63 0.60 0.51 0.57 0.53 0.44 0.47 0.48 0.51 0.48
0.70 0.67 0.63 0.56 0.52 0.54 0.60 0.65 0.72 0.77 0.79 0.78 0.83 0.85 0.89 0.96 1.05 1.11 1.17 1.27 1.37 1.43 1.48 1.38 1.22 0.95 0.58 0.88 0.86 0.76 0.83 0.81 0.89 0.91 0.91 0.85 0.80 0.72 0.63 0.62 0.54 0.48 0.48 0.36 0.44 0.51 0.50
0.76 0.75 0.70 0.67 0.58 0.53 0.53 0.57 0.61 0.65 0.70 0.75 0.74 0.77 0.81 0.81 0.87 0.96 1.05 1.13 1.28 1.40 1.45 1.47 1.25 0.98 0.63 0.89 0.70 0.68 0.76 0.72 0.78 0.84 0.87 0.88 0.80 0.68 0.65 0.52 0.46 0.47 0.34 0.37 0.37 0.48 0.48
0.76 0.75 0.73 0.73 0.69 0.62 0.56 0.52 0.52 0.57 0.63 0.64 0.72 0.73 0.74 0.79 0.79 0.76 0.88 0.98 1.12 1.31 1.37 1.38 1.25 0.91 0.80 0.71 0.78 0.74 0.69 0.71 0.72 0.73 0.74 0.75 0.70 0.59 0.57 0.50 0.35 0.36 0.36 0.37 0.36 0.42 0.50
0.69 0.73 0.74 0.74 0.74 0.70 0.66 0.61 0.55 0.51 0.52 0.59 0.63 0.70 0.72 0.75 0.78 0.78 0.73 0.71 0.83 0.86 1.08 0.91 0.86 0.82 0.86 0.92 0.86 0.81 0.83 0.66 0.73 0.69 0.53 0.65 0.54 0.45 0.49 0.51 0.48 0.45 0.41 0.37 0.41 0.44 0.47
0.64 0.64 0.66 0.73 0.74 0.74 0.75 0.74 0.72 0.65 0.57 0.50 0.52 0.62 0.66 0.68 0.74 0.77 0.76 0.52 0.70 0.86 0.72 1.00 0.95 0.94 0.96 0.95 0.77 0.82 0.91 0.68 0.58 0.46 0.55 0.53 0.40 0.53 0.57 0.54 0.51 0.48 0.43 0.41 0.42 0.43 0.44
0.58 0.58 0.58 0.59 0.66 0.69 0.71 0.72 0.73 0.75 0.74 0.69 0.59 0.52 0.53 0.58 0.66 0.68 0.67 0.61 0.65 0.73 0.63 0.79 0.92 0.88 0.91 0.94 0.75 0.77 0.87 0.82 0.65 0.54 0.52 0.43 0.43 0.55 0.53 0.47 0.44 0.45 0.41 0.42 0.41 0.40 0.43
0.47 0.50 0.51 0.52 0.53 0.58 0.62 0.64 0.66 0.68 0.69 0.73 0.73 0.70 0.59 0.49 0.51 0.59 0.54 0.66 0.72 0.65 0.38 0.50 0.69 0.79 0.87 0.89 0.70 0.88 0.88 0.82 0.72 0.56 0.55 0.51 0.54 0.49 0.47 0.41 0.44 0.36 0.47 0.48 0.43 0.40 0.30
0.45 0.44 0.46 0.47 0.50 0.52 0.53 0.56 0.60 0.62 0.63 0.66 0.68 0.73 0.72 0.65 0.44 0.44 0.56 0.68 0.66 0.61 0.17 0.31 0.50 0.90 0.84 0.70 0.67 0.74 0.89 0.80 0.63 0.64 0.62 0.44 0.49 0.48 0.43 0.41 0.45 0.35 0.47 0.45 0.45 0.40 0.38
0.42 0.43 0.45 0.45 0.46 0.49 0.50 0.53 0.55 0.58 0.60 0.63 0.67 0.68 0.73 0.68 0.60 0.49 0.63 0.66 0.59 0.32 0.16 0.30 0.50 0.51 0.58 0.63 0.65 0.74 0.78 0.77 0.79 0.73 0.66 0.54 0.62 0.53 0.42 0.47 0.49 0.48 0.42 0.42 0.43 0.43 0.29
0.39 0.40 0.41 0.43 0.44 0.45 0.45 0.49 0.52 0.56 0.58 0.61 0.64 0.67 0.67 0.71 0.50 0.63 0.54 0.46 0.25 0.20 0.33 0.28 0.33 0.49 0.49 0.52 0.57 0.66 0.64 0.61 0.53 0.51 0.46 0.57 0.53 0.58 0.57 0.46 0.49 0.47 0.39 0.30 0.30 0.32 0.24
0.38 0.38 0.38 0.39 0.40 0.42 0.45 0.47 0.49 0.51 0.55 0.56 0.59 0.63 0.64 0.66 0.72 0.67 0.50 0.31 0.16 0.20 0.26 0.31 0.31 0.40 0.40 0.51 0.53 0.59 0.60 0.53 0.59 0.56 0.47 0.44 0.38 0.49 0.55 0.52 0.44 0.44 0.42 0.31 0.24 0.27 0.31
0.36 0.37 0.37 0.38 0.38 0.40 0.45 0.51 0.54 0.55 0.57 0.59 0.60 0.57 0.55 0.63 0.72 0.65 0.39 0.20 0.17 0.18 0.20 0.27 0.32 0.37 0.37 0.47 0.47 0.51 0.53 0.50 0.53 0.57 0.43 0.41 0.39 0.53 0.58 0.58 0.56 0.43 0.39 0.40 0.36 0.39 0.35
0.33 0.33 0.36 0.37 0.38 0.40 0.45 0.52 0.56 0.59 0.60 0.63 0.55 0.49 0.48 0.65 0.71 0.56 0.32 0.21 0.23 0.26 0.20 0.21 0.23 0.36 0.36 0.42 0.44 0.48 0.49 0.55 0.52 0.57 0.61 0.49 0.37 0.48 0.52 0.60 0.55 0.49 0.50 0.38 0.40 0.28 0.25
0.32 0.31 0.32 0.34 0.36 0.38 0.45 0.51 0.56 0.58 0.61 0.63 0.53 0.38 0.51 0.65 0.65 0.43 0.24 0.20 0.21 0.24 0.24 0.19 0.20 0.28 0.34 0.38 0.44 0.47 0.49 0.48 0.56 0.57 0.63 0.57 0.51 0.45 0.53 0.47 0.46 0.49 0.45 0.45 0.42 0.38 0.28
0.33 0.34 0.32 0.31 0.34 0.37 0.44 0.49 0.56 0.56 0.59 0.60 0.48 0.27 0.56 0.63 0.35 0.35 0.26 0.19 0.24 0.21 0.25 0.25 0.26 0.28 0.32 0.36 0.46 0.43 0.44 0.44 0.51 0.57 0.53 0.56 0.53 0.43 0.47 0.58 0.58 0.57 0.48 0.45 0.36 0.31 0.37
0.36 0.36 0.35 0.32 0.33 0.36 0.45 0.50 0.57 0.58 0.59 0.55 0.38 0.37 0.55 0.55 0.24 0.26 0.27 0.25 0.24 0.20 0.19 0.20 0.21 0.24 0.30 0.29 0.34 0.44 0.52 0.57 0.58 0.59 0.50 0.57 0.51 0.42 0.47 0.55 0.63 0.53 0.53 0.50 0.46 0.45 0.34
0.35 0.35 0.37 0.34 0.34 0.37 0.46 0.52 0.57 0.60 0.60 0.54 0.40 0.27 0.38 0.44 0.32 0.26 0.25 0.22 0.21 0.24 0.21 0.20 0.19 0.20 0.21 0.33 0.40 0.34 0.44 0.55 0.55 0.57 0.56 0.59 0.53 0.47 0.37 0.36 0.47 0.50 0.52 0.50 0.49 0.42 0.38
0.34 0.35 0.37 0.37 0.36 0.37 0.46 0.53 0.58 0.62 0.62 0.58 0.40 0.28 0.34 0.24 0.28 0.29 0.28 0.24 0.22 0.21 0.23 0.25 0.21 0.21 0.18 0.20 0.33 0.36 0.41 0.49 0.63 0.63 0.63 0.64 0.47 0.53 0.48 0.52 0.52 0.48 0.49 0.50 0.46 0.40 0.43
0.34 0.35 0.36 0.35 0.36 0.38 0.44 0.52 0.59 0.61 0.64 0.51 0.38 0.36 0.39 0.33 0.33 0.33 0.33 0.26 0.23 0.22 0.25 0.20 0.19 0.18 0.17 0.15 0.25 0.36 0.43 0.45 0.47 0.56 0.54 0.59 0.47 0.53 0.46 0.51 0.52 0.48 0.49 0.51 0.49 0.46 0.48
0.36 0.34 0.33 0.32 0.35 0.37 0.42 0.49 0.56 0.58 0.63 0.48 0.50 0.54 0.44 0.35 0.33 0.31 0.27 0.26 0.26 0.29 0.27 0.27 0.23 0.21 0.20 0.18 0.19 0.33 0.43 0.52 0.52 0.52 0.56 0.56 0.52 0.48 0.38 0.45 0.48 0.45 0.48 0.45 0.47 0.55 0.48
0.36 0.32 0.29 0.31 0.34 0.36 0.40 0.48 0.52 0.61 0.61 0.53 0.54 0.57 0.42 0.31 0.33 0.27 0.31 0.32 0.29 0.28 0.23 0.25 0.30 0.28 0.21 0.26 0.26 0.27 0.36 0.43 0.48 0.50 0.55 0.49 0.53 0.51 0.40 0.43 0.32 0.51 0.49 0.52 0.49 0.48 0.53
0.34 0.32 0.28 0.31 0.33 0.36 0.40 0.46 0.50 0.59 0.62 0.56 0.60 0.53 0.43 0.33 0.36 0.35 0.34 0.32 0.32 0.32 0.29 0.30 0.31 0.30 0.35 0.29 0.22 0.18 0.20 0.32 0.38 0.44 0.45 0.52 0.49 0.46 0.39 0.39 0.45 0.50 0.48 0.47 0.44 0.38 0.53
0.34 0.33 0.30 0.31 0.33 0.35 0.39 0.44 0.51 0.57 0.61 0.60 0.57 0.62 0.50 0.36 0.32 0.37 0.33 0.33 0.27 0.26 0.30 0.32 0.37 0.40 0.37 0.32 0.27 0.17 0.15 0.19 0.23 0.31 0.48 0.56 0.56 0.45 0.44 0.36 0.31 0.41 0.40 0.50 0.57 0.40 0.54
0.33 0.33 0.31 0.30 0.33 0.35 0.38 0.44 0.49 0.52 0.60 0.59 0.56 0.63 0.52 0.40 0.41 0.39 0.32 0.29 0.34 0.32 0.29 0.33 0.33 0.32 0.34 0.25 0.21 0.20 0.18 0.28 0.23 0.27 0.33 0.43 0.47 0.41 0.43 0.40 0.45 0.46 0.50 0.59 0.42 0.33 0.49
0.32 0.33 0.31 0.29 0.33 0.35 0.38 0.44 0.51 0.53 0.59 0.59 0.54 0.63 0.52 0.41 0.44 0.44 0.42 0.35 0.36 0.34 0.29 0.33 0.31 0.31 0.29 0.22 0.21 0.20 0.20 0.23 0.26 0.32 0.37 0.34 0.39 0.40 0.42 0.39 0.35 0.53 0.54 0.41 0.42 0.46 0.46
0.34 0.33 0.31 0.29 0.33 0.36 0.41 0.48 0.54 0.56 0.57 0.61 0.48 0.60 0.61 0.46 0.43 0.55 0.51 0.51 0.45 0.42 0.37 0.37 0.32 0.29 0.29 0.25 0.27 0.24 0.20 0.29 0.27 0.19 0.36 0.35 0.41 0.43 0.44 0.38 0.51 0.52 0.50 0.54 0.55 0.50 0.48

GFSGBSN_prec_pwat_225.txt.gz
Precipitable_Water
0.65 0.65 0.60 0.54 0.50 0.65 0.76 0.85 0.92 0.95 0.99 1.05 1.07 1.07 1.17 1.26 1.23 1.27 1.32 1.38 1.36 1.06 0.99 0.97 0.93 0.89 0.79 0.56 0.49 0.74 0.85 0.88 0.86 0.78 0.65 0.62 0.58 0.54 0.47 0.50 0.52 0.48 0.47 0.50 0.50 0.52 0.53
0.70 0.68 0.68 0.64 0.58 0.50 0.56 0.68 0.76 0.85 0.89 0.92 0.96 1.02 1.07 1.10 1.21 1.25 1.25 1.29 1.35 1.42 1.29 1.07 0.97 0.91 0.69 0.41 0.72 0.71 0.76 0.81 0.79 0.74 0.69 0.65 0.59 0.61 0.54 0.52 0.49 0.51 0.49 0.48 0.50 0.48 0.51
0.74 0.73 0.71 0.69 0.67 0.61 0.52 0.52 0.61 0.70 0.79 0.83 0.86 0.90 1.00 1.04 1.06 1.14 1.18 1.19 1.28 1.34 1.43 1.43 1.28 0.93 0.62 0.45 0.74 0.81 0.79 0.73 0.81 0.79 0.69 0.75 0.73 0.63 0.62 0.52 0.56 0.52 0.44 0.45 0.45 0.46 0.46
0.71 0.73 0.74 0.74 0.71 0.69 0.62 0.54 0.52 0.61 0.66 0.77 0.79 0.82 0.86 0.92 1.00 1.02 1.04 1.10 1.18 1.28 1.34 1.43 1.45 1.22 0.70 0.80 0.74 0.65 0.75 0.73 0.77 0.81 0.81 0.85 0.82 0.68 0.63 0.63 0.55 0.48 0.47 0.36 0.42 0.45 0.47
0.62 0.65 0.72 0.73 0.74 0.74 0.70 0.63 0.56 0.53 0.58 0.62 0.71 0.75 0.80 0.82 0.87 0.93 0.96 0.97 1.04 1.14 1.30 1.37 1.26 1.11 0.80 1.05 0.81 0.69 0.66 0.57 0.68 0.74 0.77 0.85 0.78 0.67 0.62 0.52 0.46 0.49 0.40 0.39 0.36 0.46 0.45
0.59 0.62 0.63 0.68 0.75 0.75 0.75 0.72 0.65 0.59 0.54 0.53 0.59 0.69 0.74 0.79 0.79 0.83 0.86 0.89 0.90 1.03 1.09 1.31 1.23 0.94 0.94 0.80 0.95 1.01 0.90 0.66 0.59 0.65 0.68 0.69 0.66 0.55 0.55 0.49 0.33 0.38 0.41 0.41 0.36 0.40 0.42
0.56 0.58 0.62 0.63 0.64 0.72 0.74 0.76 0.76 0.72 0.67 0.59 0.52 0.56 0.67 0.75 0.78 0.80 0.81 0.71 0.65 0.71 0.83 0.84 0.90 0.83 0.87 1.01 1.01 0.90 0.92 0.84 0.75 0.63 0.48 0.60 0.49 0.37 0.47 0.52 0.52 0.48 0.44 0.42 0.45 0.47 0.43
0.48 0.52 0.55 0.57 0.59 0.61 0.65 0.72 0.73 0.77 0.78 0.75 0.66 0.54 0.48 0.60 0.71 0.77 0.80 0.61 0.64 0.64 0.54 0.83 0.93 0.95 0.99 0.98 0.76 0.83 0.96 0.72 0.68 0.52 0.59 0.51 0.35 0.47 0.55 0.54 0.51 0.49 0.44 0.43 0.47 0.48 0.46
0.43 0.45 0.48 0.49 0.51 0.54 0.55 0.59 0.64 0.67 0.71 0.72 0.74 0.74 0.64 0.49 0.60 0.63 0.64 0.65 0.79 0.72 0.50 0.55 0.80 0.85 0.90 0.97 0.80 0.78 0.93 0.79 0.64 0.55 0.55 0.47 0.40 0.52 0.51 0.48 0.45 0.45 0.43 0.45 0.43 0.48 0.47
0.39 0.43 0.44 0.46 0.48 0.49 0.50 0.54 0.56 0.61 0.64 0.67 0.68 0.71 0.75 0.70 0.47 0.46 0.47 0.64 0.74 0.72 0.39 0.42 0.51 0.72 0.88 0.92 0.72 0.87 0.92 0.84 0.74 0.60 0.58 0.54 0.60 0.54 0.51 0.44 0.44 0.34 0.48 0.49 0.45 0.43 0.33
0.40 0.40 0.40 0.43 0.44 0.47 0.49 0.50 0.53 0.55 0.58 0.61 0.63 0.64 0.69 0.75 0.56 0.44 0.43 0.60 0.64 0.59 0.19 0.32 0.44 0.78 0.75 0.67 0.69 0.75 0.89 0.81 0.67 0.66 0.67 0.48 0.56 0.54 0.48 0.42 0.52 0.40 0.48 0.46 0.45 0.42 0.41
0.37 0.40 0.39 0.40 0.40 0.42 0.44 0.48 0.48 0.52 0.52 0.55 0.60 0.61 0.65 0.66 0.67 0.60 0.62 0.62 0.58 0.28 0.15 0.23 0.44 0.46 0.53 0.58 0.62 0.73 0.76 0.81 0.79 0.71 0.66 0.57 0.68 0.62 0.52 0.57 0.56 0.56 0.49 0.46 0.45 0.41 0.28
0.36 0.36 0.36 0.37 0.37 0.39 0.40 0.43 0.48 0.51 0.53 0.53 0.55 0.59 0.61 0.67 0.53 0.70 0.65 0.48 0.24 0.20 0.31 0.25 0.30 0.42 0.42 0.43 0.51 0.61 0.60 0.60 0.52 0.48 0.44 0.58 0.58 0.64 0.63 0.53 0.59 0.56 0.48 0.34 0.31 0.30 0.21
0.35 0.35 0.34 0.33 0.34 0.35 0.36 0.38 0.43 0.50 0.54 0.55 0.55 0.56 0.58 0.63 0.70 0.71 0.58 0.33 0.16 0.18 0.21 0.34 0.36 0.36 0.36 0.42 0.44 0.50 0.51 0.47 0.60 0.54 0.44 0.41 0.37 0.56 0.60 0.55 0.49 0.51 0.50 0.35 0.26 0.23 0.25
0.35 0.35 0.34 0.33 0.32 0.32 0.34 0.36 0.41 0.47 0.52 0.57 0.59 0.55 0.51 0.56 0.65 0.66 0.42 0.21 0.17 0.16 0.17 0.18 0.24 0.28 0.33 0.43 0.42 0.44 0.46 0.45 0.50 0.55 0.43 0.41 0.39 0.56 0.60 0.64 0.61 0.52 0.46 0.48 0.39 0.38 0.30
0.39 0.37 0.36 0.36 0.35 0.34 0.34 0.35 0.40 0.46 0.52 0.57 0.52 0.49 0.46 0.59 0.65 0.55 0.33 0.22 0.20 0.19 0.18 0.17 0.13 0.23 0.27 0.33 0.41 0.43 0.44 0.49 0.49 0.57 0.59 0.51 0.38 0.50 0.57 0.63 0.64 0.55 0.57 0.46 0.46 0.32 0.25
0.41 0.39 0.38 0.37 0.37 0.37 0.35 0.36 0.40 0.46 0.53 0.58 0.49 0.37 0.51 0.61 0.62 0.41 0.23 0.20 0.19 0.22 0.22 0.18 0.16 0.16 0.17 0.28 0.41 0.38 0.42 0.45 0.52 0.56 0.62 0.55 0.49 0.45 0.52 0.45 0.43 0.52 0.49 0.50 0.51 0.44 0.30
0.42 0.39 0.38 0.36 0.38 0.39 0.37 0.36 0.40 0.46 0.55 0.55 0.43 0.28 0.57 0.62 0.33 0.32 0.21 0.18 0.24 0.22 0.26 0.23 0.23 0.19 0.17 0.17 0.24 0.36 0.42 0.44 0.53 0.50 0.44 0.49 0.49 0.42 0.43 0.54 0.58 0.54 0.48 0.50 0.42 0.33 0.38
0.43 0.42 0.38 0.37 0.39 0.39 0.40 0.38 0.39 0.47 0.58 0.52 0.35 0.36 0.57 0.55 0.23 0.22 0.24 0.23 0.26 0.21 0.22 0.23 0.21 0.22 0.20 0.15 0.16 0.30 0.41 0.56 0.64 0.61 0.51 0.51 0.48 0.38 0.41 0.52 0.58 0.48 0.47 0.49 0.47 0.45 0.34
0.43 0.43 0.42 0.38 0.38 0.36 0.39 0.39 0.39 0.49 0.60 0.57 0.38 0.25 0.36 0.43 0.35 0.25 0.23 0.21 0.22 0.29 0.25 0.25 0.22 0.26 0.23 0.20 0.25 0.20 0.27 0.46 0.54 0.62 0.67 0.64 0.52 0.45 0.36 0.35 0.42 0.48 0.48 0.48 0.47 0.41 0.31
0.42 0.40 0.42 0.40 0.36 0.35 0.37 0.39 0.39 0.45 0.58 0.55 0.41 0.28 0.33 0.22 0.27 0.29 0.28 0.22 0.21 0.21 0.26 0.26 0.22 0.21 0.17 0.16 0.17 0.18 0.22 0.27 0.40 0.51 0.59 0.60 0.45 0.47 0.44 0.42 0.48 0.45 0.46 0.49 0.47 0.45 0.41
0.41 0.37 0.40 0.40 0.34 0.32 0.36 0.39 0.39 0.43 0.55 0.48 0.34 0.34 0.38 0.29 0.31 0.29 0.28 0.23 0.19 0.19 0.24 0.20 0.20 0.19 0.21 0.18 0.16 0.14 0.16 0.18 0.19 0.37 0.51 0.58 0.47 0.49 0.46 0.45 0.48 0.44 0.47 0.51 0.52 0.49 0.51
0.43 0.38 0.37 0.37 0.35 0.32 0.36 0.38 0.38 0.43 0.54 0.44 0.46 0.48 0.40 0.31 0.32 0.30 0.24 0.24 0.25 0.29 0.31 0.28 0.23 0.22 0.23 0.21 0.20 0.21 0.25 0.26 0.33 0.33 0.39 0.42 0.41 0.41 0.36 0.42 0.42 0.39 0.45 0.49 0.55 0.53 0.49
0.44 0.39 0.37 0.36 0.35 0.34 0.35 0.37 0.38 0.42 0.54 0.52 0.48 0.46 0.35 0.23 0.31 0.27 0.30 0.32 0.32 0.31 0.26 0.29 0.31 0.29 0.24 0.27 0.32 0.29 0.27 0.25 0.25 0.26 0.38 0.36 0.36 0.35 0.29 0.35 0.30 0.49 0.52 0.55 0.54 0.56 0.58
0.43 0.41 0.39 0.34 0.35 0.33 0.33 0.36 0.37 0.41 0.49 0.51 0.54 0.46 0.38 0.27 0.34 0.32 0.35 0.35 0.36 0.37 0.34 0.32 0.33 0.30 0.35 0.33 0.26 0.23 0.22 0.22 0.21 0.23 0.24 0.32 0.31 0.29 0.26 0.28 0.34 0.48 0.48 0.48 0.47 0.43 0.51
0.42 0.40 0.34 0.34 0.34 0.32 0.31 0.36 0.41 0.43 0.47 0.51 0.52 0.57 0.45 0.33 0.29 0.38 0.36 0.39 0.33 0.33 0.34 0.34 0.38 0.40 0.37 0.32 0.26 0.18 0.16 0.17 0.15 0.17 0.23 0.27 0.30 0.28 0.27 0.23 0.23 0.33 0.44 0.50 0.48 0.36 0.50
0.42 0.40 0.38 0.36 0.34 0.33 0.30 0.38 0.41 0.44 0.51 0.54 0.50 0.59 0.48 0.36 0.40 0.42 0.35 0.34 0.41 0.37 0.31 0.34 0.35 0.33 0.37 0.28 0.22 0.20 0.17 0.21 0.15 0.14 0.17 0.21 0.25 0.26 0.29 0.29 0.31 0.38 0.52 0.59 0.40 0.41 0.43
0.41 0.39 0.40 0.37 0.35 0.33 0.31 0.39 0.41 0.49 0.55 0.56 0.50 0.60 0.49 0.39 0.41 0.46 0.45 0.40 0.40 0.38 0.29 0.34 0.32 0.33 0.32 0.25 0.23 0.21 0.19 0.19 0.18 0.19 0.22 0.21 0.20 0.26 0.29 0.26 0.25 0.50 0.57 0.51 0.44 0.41 0.43
0.37 0.39 0.38 0.40 0.37 0.33 0.32 0.38 0.48 0.53 0.60 0.58 0.46 0.58 0.60 0.45 0.41 0.53 0.53 0.53 0.49 0.45 0.39 0.38 0.32 0.32 0.33 0.28 0.26 0.24 0.20 0.21 0.18 0.15 0.23 0.19 0.25 0.26 0.32 0.32 0.55 0.65 0.65 0.68 0.64 0.59 0.55

GFSGBSN_prec_pwat_231.txt.gz
Precipitable_Water
0.55 0.56 0.56 0.56 0.58 0.61 0.63 0.63 0.62 0.60 0.55 0.45 0.47 0.63 0.82 0.91 1.02 1.08 1.19 1.21 1.20 1.24 1.33 1.35 1.18 1.05 0.87 0.57 0.43 0.73 0.83 0.78 0.75 0.71 0.64 0.58 0.51 0.49 0.45 0.46 0.46 0.42 0.44 0.50 0.50 0.49 0.49
0.51 0.53 0.54 0.55 0.55 0.59 0.63 0.63 0.64 0.64 0.62 0.56 0.48 0.46 0.58 0.79 0.88 0.98 1.07 1.16 1.17 1.17 1.21 1.32 1.39 1.33 0.82 0.42 0.68 0.67 0.73 0.77 0.73 0.67 0.62 0.61 0.55 0.56 0.51 0.49 0.45 0.48 0.46 0.48 0.49 0.47 0.49
0.44 0.46 0.48 0.51 0.54 0.55 0.59 0.63 0.65 0.66 0.65 0.62 0.58 0.49 0.48 0.60 0.77 0.86 0.93 1.05 1.14 1.13 1.15 1.21 1.31 1.29 1.06 0.65 0.72 0.74 0.70 0.67 0.76 0.71 0.61 0.67 0.63 0.56 0.54 0.48 0.54 0.51 0.42 0.46 0.47 0.47 0.45
0.43 0.44 0.43 0.45 0.50 0.54 0.56 0.61 0.65 0.68 0.69 0.67 0.64 0.60 0.52 0.51 0.63 0.74 0.86 0.90 1.02 1.09 1.12 1.12 1.19 1.16 0.89 1.25 1.26 0.78 0.72 0.68 0.73 0.79 0.70 0.72 0.74 0.61 0.54 0.56 0.51 0.45 0.46 0.36 0.43 0.45 0.45
0.42 0.41 0.42 0.42 0.46 0.50 0.54 0.57 0.61 0.64 0.66 0.71 0.71 0.69 0.64 0.54 0.51 0.62 0.74 0.86 0.90 0.97 1.07 1.11 1.00 0.98 0.80 1.22 1.09 1.19 0.87 0.57 0.65 0.71 0.75 0.76 0.69 0.57 0.56 0.45 0.39 0.42 0.33 0.36 0.37 0.46 0.44
0.46 0.41 0.41 0.41 0.44 0.45 0.49 0.52 0.55 0.59 0.61 0.62 0.67 0.69 0.71 0.67 0.55 0.56 0.66 0.75 0.81 0.86 0.92 1.03 1.01 0.78 0.87 0.84 1.02 1.14 1.26 1.00 0.56 0.56 0.62 0.63 0.62 0.47 0.44 0.41 0.25 0.30 0.33 0.37 0.33 0.40 0.45
0.40 0.42 0.42 0.41 0.43 0.42 0.45 0.48 0.50 0.50 0.53 0.54 0.62 0.68 0.70 0.71 0.67 0.56 0.58 0.59 0.54 0.57 0.70 0.61 0.73 0.76 0.87 1.02 1.07 1.02 1.12 1.09 0.99 0.59 0.38 0.54 0.44 0.34 0.37 0.43 0.44 0.41 0.37 0.35 0.42 0.46 0.42
0.43 0.40 0.41 0.42 0.42 0.42 0.44 0.44 0.45 0.46 0.50 0.51 0.55 0.59 0.65 0.69 0.70 0.67 0.55 0.43 0.49 0.62 0.45 0.67 0.74 0.81 0.90 0.97 0.82 0.89 1.06 0.86 0.83 0.69 0.58 0.45 0.33 0.38 0.47 0.46 0.42 0.42 0.38 0.37 0.45 0.50 0.46
0.41 0.41 0.36 0.41 0.42 0.42 0.42 0.40 0.41 0.41 0.46 0.48 0.51 0.54 0.57 0.63 0.69 0.65 0.52 0.43 0.62 0.64 0.44 0.47 0.59 0.66 0.76 0.84 0.75 0.82 0.93 0.86 0.76 0.68 0.66 0.51 0.37 0.46 0.44 0.41 0.38 0.38 0.35 0.38 0.40 0.47 0.47
0.39 0.40 0.39 0.38 0.38 0.38 0.38 0.38 0.40 0.40 0.41 0.47 0.49 0.51 0.54 0.59 0.55 0.59 0.52 0.55 0.57 0.63 0.28 0.28 0.39 0.50 0.64 0.75 0.67 0.90 0.96 0.84 0.73 0.65 0.67 0.62 0.60 0.52 0.45 0.38 0.41 0.32 0.43 0.43 0.42 0.40 0.30
0.44 0.39 0.38 0.38 0.37 0.37 0.37 0.36 0.38 0.38 0.39 0.43 0.46 0.50 0.53 0.56 0.51 0.48 0.56 0.62 0.55 0.54 0.11 0.23 0.32 0.56 0.55 0.53 0.66 0.74 0.97 0.83 0.68 0.66 0.66 0.56 0.58 0.56 0.54 0.49 0.53 0.38 0.46 0.46 0.47 0.45 0.43
0.50 0.45 0.39 0.37 0.36 0.37 0.36 0.35 0.36 0.36 0.37 0.40 0.42 0.49 0.55 0.50 0.51 0.53 0.62 0.61 0.55 0.24 0.11 0.17 0.30 0.39 0.46 0.52 0.56 0.68 0.72 0.88 0.87 0.71 0.68 0.64 0.70 0.66 0.61 0.65 0.67 0.66 0.57 0.57 0.56 0.48 0.33
0.54 0.51 0.46 0.42 0.40 0.37 0.38 0.38 0.36 0.35 0.36 0.38 0.41 0.45 0.49 0.57 0.39 0.59 0.61 0.49 0.23 0.15 0.18 0.15 0.19 0.35 0.39 0.41 0.46 0.54 0.60 0.60 0.55 0.49 0.49 0.60 0.61 0.66 0.64 0.55 0.63 0.62 0.55 0.40 0.37 0.36 0.27
0.55 0.55 0.51 0.46 0.44 0.40 0.38 0.38 0.39 0.37 0.36 0.37 0.40 0.42 0.43 0.50 0.58 0.57 0.51 0.33 0.17 0.16 0.13 0.20 0.28 0.27 0.34 0.44 0.45 0.47 0.51 0.51 0.63 0.60 0.52 0.46 0.43 0.62 0.68 0.59 0.55 0.57 0.54 0.41 0.30 0.29 0.30
0.49 0.52 0.54 0.50 0.46 0.41 0.37 0.36 0.40 0.40 0.38 0.37 0.42 0.38 0.38 0.46 0.60 0.57 0.35 0.20 0.14 0.17 0.20 0.17 0.20 0.23 0.25 0.33 0.45 0.47 0.46 0.49 0.55 0.61 0.46 0.46 0.46 0.64 0.64 0.65 0.63 0.55 0.49 0.60 0.47 0.47 0.39
0.45 0.47 0.49 0.51 0.50 0.46 0.41 0.36 0.40 0.39 0.40 0.39 0.37 0.31 0.26 0.46 0.61 0.50 0.28 0.14 0.20 0.24 0.22 0.21 0.15 0.19 0.17 0.24 0.29 0.41 0.42 0.52 0.52 0.62 0.65 0.51 0.40 0.54 0.60 0.66 0.64 0.56 0.62 0.46 0.47 0.31 0.28
0.43 0.45 0.45 0.46 0.48 0.50 0.47 0.42 0.39 0.37 0.40 0.41 0.35 0.24 0.33 0.52 0.57 0.37 0.18 0.17 0.22 0.26 0.25 0.21 0.18 0.17 0.16 0.16 0.21 0.27 0.38 0.43 0.49 0.52 0.62 0.54 0.48 0.46 0.56 0.54 0.50 0.54 0.50 0.53 0.52 0.43 0.29
0.45 0.44 0.43 0.45 0.46 0.48 0.49 0.47 0.42 0.35 0.38 0.39 0.32 0.20 0.44 0.58 0.31 0.32 0.21 0.24 0.28 0.25 0.27 0.25 0.23 0.20 0.18 0.19 0.18 0.18 0.21 0.31 0.56 0.53 0.44 0.57 0.50 0.39 0.44 0.59 0.64 0.59 0.49 0.52 0.40 0.34 0.40
0.43 0.46 0.46 0.41 0.43 0.47 0.43 0.45 0.47 0.36 0.38 0.38 0.25 0.25 0.40 0.47 0.21 0.22 0.28 0.28 0.29 0.27 0.27 0.25 0.22 0.23 0.23 0.20 0.19 0.19 0.18 0.23 0.30 0.37 0.41 0.48 0.43 0.33 0.34 0.48 0.56 0.49 0.50 0.52 0.47 0.45 0.34
0.55 0.47 0.43 0.41 0.40 0.47 0.44 0.40 0.44 0.36 0.38 0.39 0.27 0.17 0.27 0.35 0.36 0.26 0.24 0.26 0.26 0.33 0.29 0.29 0.25 0.25 0.23 0.22 0.24 0.20 0.19 0.20 0.26 0.29 0.40 0.46 0.38 0.35 0.30 0.37 0.45 0.41 0.45 0.51 0.47 0.41 0.32
0.48 0.43 0.46 0.38 0.39 0.50 0.46 0.38 0.39 0.38 0.40 0.39 0.27 0.19 0.26 0.21 0.25 0.28 0.28 0.25 0.23 0.23 0.30 0.30 0.25 0.25 0.24 0.21 0.21 0.18 0.18 0.18 0.21 0.26 0.34 0.39 0.30 0.35 0.36 0.37 0.40 0.41 0.43 0.49 0.46 0.45 0.39
0.52 0.44 0.50 0.39 0.45 0.52 0.47 0.45 0.38 0.39 0.40 0.34 0.22 0.20 0.23 0.22 0.30 0.27 0.26 0.26 0.25 0.27 0.28 0.24 0.25 0.27 0.26 0.20 0.16 0.15 0.20 0.21 0.19 0.24 0.27 0.33 0.25 0.28 0.27 0.30 0.31 0.33 0.39 0.42 0.45 0.49 0.50
0.48 0.45 0.51 0.44 0.46 0.51 0.48 0.45 0.37 0.39 0.39 0.28 0.29 0.31 0.27 0.19 0.26 0.25 0.24 0.23 0.25 0.28 0.27 0.30 0.28 0.26 0.21 0.16 0.29 0.27 0.29 0.27 0.25 0.22 0.23 0.24 0.21 0.23 0.20 0.26 0.28 0.25 0.31 0.36 0.40 0.49 0.53
0.47 0.50 0.51 0.47 0.48 0.50 0.46 0.40 0.36 0.40 0.38 0.34 0.30 0.32 0.24 0.16 0.20 0.23 0.23 0.25 0.26 0.26 0.24 0.27 0.29 0.26 0.21 0.38 0.35 0.33 0.30 0.28 0.27 0.25 0.25 0.20 0.21 0.22 0.16 0.22 0.16 0.22 0.30 0.37 0.35 0.40 0.50
0.47 0.49 0.49 0.49 0.49 0.51 0.47 0.44 0.43 0.42 0.37 0.36 0.31 0.32 0.27 0.18 0.22 0.20 0.23 0.24 0.27 0.27 0.26 0.26 0.28 0.30 0.36 0.35 0.28 0.23 0.22 0.23 0.21 0.23 0.24 0.24 0.21 0.17 0.15 0.16 0.18 0.20 0.23 0.25 0.30 0.31 0.42
0.50 0.41 0.44 0.45 0.45 0.48 0.45 0.42 0.42 0.42 0.43 0.40 0.30 0.36 0.33 0.22 0.16 0.24 0.25 0.26 0.23 0.23 0.24 0.25 0.34 0.40 0.41 0.34 0.26 0.17 0.14 0.16 0.15 0.17 0.22 0.22 0.23 0.19 0.16 0.12 0.11 0.14 0.21 0.25 0.24 0.20 0.33
0.48 0.44 0.39 0.41 0.46 0.45 0.41 0.42 0.42 0.45 0.44 0.41 0.32 0.39 0.35 0.23 0.24 0.30 0.26 0.26 0.30 0.29 0.27 0.31 0.36 0.38 0.44 0.30 0.22 0.19 0.17 0.19 0.14 0.13 0.14 0.17 0.19 0.15 0.14 0.14 0.16 0.13 0.17 0.22 0.19 0.20 0.30
0.45 0.43 0.41 0.39 0.40 0.37 0.36 0.39 0.42 0.41 0.39 0.35 0.32 0.40 0.38 0.29 0.29 0.36 0.36 0.33 0.35 0.35 0.28 0.35 0.33 0.35 0.33 0.25 0.23 0.22 0.21 0.21 0.18 0.17 0.16 0.16 0.15 0.14 0.17 0.15 0.12 0.13 0.16 0.16 0.18 0.23 0.26
0.44 0.43 0.42 0.40 0.41 0.38 0.36 0.35 0.36 0.36 0.36 0.38 0.32 0.48 0.51 0.39 0.35 0.46 0.44 0.44 0.43 0.45 0.39 0.39 0.35 0.35 0.36 0.30 0.28 0.27 0.23 0.23 0.19 0.14 0.22 0.16 0.17 0.16 0.18 0.16 0.18 0.14 0.17 0.21 0.25 0.27 0.38

GFSGBSN_prec_pwat_234.txt.gz
Precipitable_Water
0.46 0.47 0.49 0.52 0.52 0.52 0.54 0.57 0.58 0.59 0.60 0.59 0.57 0.52 0.48 0.46 0.48 0.63 0.85 1.05 1.13 1.16 1.20 1.27 1.32 1.30 0.97 0.62 0.48 0.70 0.77 0.73 0.79 0.75 0.63 0.56 0.52 0.51 0.45 0.48 0.48 0.41 0.40 0.45 0.47 0.48 0.48
0.44 0.44 0.43 0.44 0.46 0.48 0.51 0.53 0.57 0.60 0.62 0.62 0.61 0.58 0.55 0.49 0.50 0.51 0.63 0.85 1.02 1.13 1.15 1.17 1.25 1.30 1.14 0.54 0.73 0.68 0.71 0.78 0.70 0.66 0.63 0.65 0.56 0.56 0.50 0.49 0.48 0.46 0.43 0.44 0.48 0.48 0.49
0.43 0.43 0.44 0.42 0.42 0.44 0.47 0.49 0.53 0.58 0.61 0.65 0.66 0.64 0.61 0.56 0.51 0.51 0.51 0.65 0.84 1.00 1.12 1.14 1.16 1.14 0.98 0.92 0.97 0.77 0.70 0.64 0.73 0.71 0.58 0.64 0.68 0.60 0.54 0.48 0.53 0.50 0.40 0.44 0.45 0.47 0.46
0.45 0.45 0.44 0.44 0.42 0.45 0.44 0.47 0.50 0.53 0.57 0.60 0.63 0.65 0.67 0.65 0.60 0.53 0.50 0.52 0.68 0.84 1.00 1.08 1.11 1.02 0.80 1.16 1.34 0.99 0.73 0.67 0.72 0.77 0.73 0.72 0.71 0.61 0.57 0.58 0.51 0.44 0.42 0.33 0.42 0.46 0.47
0.42 0.49 0.44 0.43 0.43 0.42 0.43 0.46 0.48 0.47 0.51 0.54 0.58 0.60 0.62 0.64 0.65 0.61 0.54 0.51 0.54 0.71 0.86 1.01 0.96 0.88 0.73 1.06 1.09 1.24 1.07 0.66 0.65 0.71 0.75 0.73 0.68 0.57 0.57 0.48 0.40 0.39 0.29 0.33 0.37 0.45 0.44
0.47 0.45 0.43 0.42 0.43 0.42 0.43 0.45 0.46 0.46 0.45 0.48 0.49 0.54 0.58 0.63 0.65 0.66 0.59 0.54 0.52 0.58 0.73 0.85 0.90 0.71 0.80 0.79 1.03 1.18 1.25 1.04 0.68 0.62 0.64 0.66 0.58 0.47 0.45 0.41 0.28 0.32 0.33 0.34 0.34 0.43 0.42
0.43 0.44 0.42 0.42 0.41 0.47 0.43 0.43 0.40 0.42 0.42 0.45 0.46 0.49 0.53 0.56 0.61 0.66 0.63 0.53 0.42 0.40 0.50 0.47 0.60 0.69 0.79 0.99 1.10 1.05 1.18 1.10 0.89 0.65 0.46 0.57 0.51 0.39 0.35 0.38 0.40 0.38 0.38 0.36 0.38 0.43 0.39
0.46 0.42 0.43 0.40 0.43 0.42 0.42 0.41 0.40 0.40 0.40 0.41 0.45 0.48 0.49 0.53 0.56 0.61 0.64 0.46 0.45 0.49 0.29 0.47 0.57 0.65 0.73 0.88 0.77 0.90 1.11 0.89 0.86 0.63 0.59 0.55 0.39 0.37 0.47 0.45 0.43 0.40 0.37 0.35 0.40 0.45 0.41
0.52 0.46 0.42 0.41 0.41 0.40 0.38 0.36 0.38 0.38 0.39 0.38 0.43 0.47 0.48 0.51 0.53 0.53 0.56 0.54 0.57 0.59 0.35 0.32 0.41 0.49 0.60 0.72 0.69 0.76 0.94 0.88 0.79 0.72 0.63 0.48 0.41 0.49 0.45 0.47 0.43 0.39 0.36 0.37 0.38 0.46 0.45
0.57 0.51 0.46 0.41 0.40 0.39 0.39 0.37 0.36 0.36 0.37 0.37 0.41 0.44 0.46 0.51 0.43 0.54 0.48 0.64 0.64 0.60 0.25 0.20 0.26 0.38 0.54 0.65 0.57 0.83 0.90 0.84 0.76 0.67 0.72 0.63 0.57 0.48 0.45 0.45 0.44 0.35 0.42 0.42 0.40 0.39 0.31
0.59 0.56 0.52 0.47 0.42 0.40 0.37 0.37 0.37 0.36 0.36 0.36 0.38 0.41 0.43 0.49 0.43 0.41 0.48 0.57 0.64 0.50 0.12 0.20 0.25 0.43 0.48 0.49 0.49 0.62 0.88 0.82 0.66 0.67 0.71 0.60 0.60 0.54 0.45 0.41 0.50 0.37 0.46 0.43 0.42 0.36 0.36
0.56 0.59 0.57 0.53 0.48 0.44 0.41 0.40 0.40 0.38 0.36 0.33 0.35 0.38 0.41 0.41 0.46 0.48 0.58 0.59 0.51 0.25 0.12 0.16 0.23 0.32 0.36 0.41 0.43 0.58 0.68 0.85 0.85 0.68 0.70 0.67 0.77 0.71 0.62 0.56 0.56 0.54 0.52 0.46 0.48 0.41 0.31
0.49 0.54 0.58 0.57 0.53 0.48 0.44 0.41 0.38 0.40 0.40 0.37 0.34 0.36 0.36 0.40 0.32 0.53 0.62 0.45 0.21 0.14 0.18 0.14 0.20 0.28 0.35 0.36 0.39 0.45 0.56 0.57 0.53 0.46 0.49 0.60 0.64 0.73 0.70 0.56 0.62 0.57 0.51 0.41 0.37 0.37 0.27
0.45 0.48 0.52 0.54 0.55 0.52 0.48 0.44 0.39 0.41 0.42 0.42 0.38 0.33 0.36 0.35 0.41 0.52 0.50 0.31 0.13 0.16 0.18 0.21 0.24 0.25 0.25 0.43 0.38 0.38 0.45 0.47 0.58 0.56 0.49 0.45 0.43 0.61 0.70 0.63 0.55 0.58 0.56 0.40 0.30 0.31 0.30
0.53 0.44 0.46 0.50 0.51 0.51 0.51 0.49 0.45 0.41 0.41 0.40 0.38 0.34 0.32 0.33 0.44 0.53 0.35 0.18 0.16 0.20 0.24 0.21 0.20 0.16 0.18 0.30 0.39 0.43 0.37 0.40 0.54 0.58 0.44 0.43 0.45 0.69 0.68 0.66 0.65 0.57 0.51 0.57 0.47 0.47 0.37
0.51 0.45 0.43 0.46 0.49 0.48 0.48 0.50 0.50 0.46 0.40 0.37 0.33 0.29 0.27 0.43 0.49 0.45 0.28 0.16 0.23 0.27 0.26 0.24 0.18 0.19 0.15 0.19 0.26 0.36 0.41 0.48 0.43 0.57 0.63 0.53 0.40 0.59 0.66 0.72 0.68 0.63 0.66 0.49 0.49 0.34 0.32
0.53 0.46 0.44 0.42 0.45 0.46 0.47 0.48 0.51 0.52 0.45 0.35 0.32 0.24 0.32 0.51 0.53 0.35 0.18 0.20 0.22 0.29 0.29 0.26 0.21 0.19 0.18 0.18 0.21 0.23 0.27 0.39 0.53 0.52 0.57 0.56 0.47 0.44 0.59 0.55 0.53 0.56 0.53 0.55 0.54 0.46 0.32
0.47 0.46 0.46 0.47 0.46 0.43 0.44 0.47 0.45 0.50 0.47 0.34 0.31 0.18 0.39 0.50 0.28 0.30 0.23 0.26 0.29 0.27 0.30 0.27 0.25 0.23 0.21 0.21 0.19 0.20 0.22 0.27 0.40 0.44 0.40 0.49 0.44 0.39 0.41 0.54 0.63 0.60 0.55 0.56 0.42 0.38 0.40
0.51 0.51 0.56 0.52 0.45 0.40 0.41 0.46 0.46 0.44 0.45 0.35 0.27 0.24 0.30 0.37 0.16 0.21 0.26 0.29 0.33 0.28 0.27 0.26 0.24 0.26 0.25 0.22 0.19 0.19 0.20 0.28 0.31 0.34 0.33 0.38 0.36 0.30 0.36 0.44 0.57 0.53 0.56 0.55 0.53 0.52 0.40
0.53 0.56 0.55 0.48 0.47 0.40 0.40 0.47 0.49 0.47 0.41 0.36 0.28 0.18 0.23 0.26 0.25 0.22 0.24 0.25 0.24 0.35 0.31 0.33 0.29 0.29 0.26 0.22 0.22 0.17 0.16 0.24 0.32 0.35 0.41 0.40 0.33 0.31 0.28 0.33 0.40 0.39 0.45 0.50 0.50 0.42 0.38
0.48 0.50 0.55 0.50 0.49 0.42 0.41 0.51 0.50 0.47 0.41 0.37 0.29 0.21 0.23 0.15 0.19 0.22 0.25 0.26 0.23 0.22 0.34 0.32 0.30 0.29 0.23 0.18 0.20 0.20 0.23 0.25 0.27 0.29 0.30 0.34 0.28 0.32 0.34 0.36 0.37 0.37 0.37 0.41 0.39 0.42 0.41
0.49 0.48 0.49 0.50 0.48 0.48 0.42 0.51 0.51 0.51 0.44 0.33 0.24 0.22 0.24 0.19 0.19 0.17 0.19 0.21 0.21 0.22 0.27 0.26 0.25 0.26 0.25 0.23 0.24 0.21 0.24 0.24 0.24 0.27 0.29 0.33 0.27 0.29 0.27 0.32 0.31 0.29 0.32 0.35 0.38 0.44 0.42
0.49 0.51 0.49 0.49 0.50 0.50 0.45 0.51 0.49 0.48 0.43 0.33 0.33 0.31 0.27 0.18 0.18 0.16 0.15 0.22 0.24 0.24 0.26 0.29 0.29 0.27 0.26 0.30 0.32 0.30 0.30 0.30 0.28 0.25 0.23 0.25 0.24 0.23 0.20 0.26 0.27 0.24 0.27 0.30 0.33 0.39 0.40
0.50 0.53 0.51 0.51 0.50 0.52 0.50 0.50 0.52 0.47 0.41 0.40 0.34 0.32 0.24 0.15 0.17 0.17 0.17 0.20 0.22 0.22 0.22 0.25 0.28 0.27 0.31 0.35 0.36 0.34 0.31 0.29 0.29 0.24 0.27 0.21 0.20 0.21 0.16 0.23 0.17 0.22 0.28 0.29 0.29 0.36 0.42
0.50 0.51 0.52 0.49 0.46 0.47 0.48 0.49 0.51 0.48 0.47 0.43 0.41 0.33 0.26 0.17 0.17 0.19 0.19 0.19 0.21 0.23 0.23 0.23 0.24 0.30 0.36 0.34 0.28 0.23 0.22 0.22 0.21 0.23 0.23 0.24 0.22 0.17 0.15 0.14 0.18 0.21 0.23 0.25 0.26 0.29 0.36
0.50 0.50 0.50 0.47 0.44 0.42 0.43 0.48 0.48 0.44 0.44 0.43 0.42 0.44 0.34 0.21 0.14 0.18 0.20 0.22 0.20 0.22 0.24 0.25 0.31 0.35 0.37 0.32 0.26 0.17 0.15 0.17 0.16 0.17 0.21 0.23 0.24 0.20 0.18 0.12 0.09 0.11 0.21 0.25 0.25 0.19 0.26
0.49 0.49 0.47 0.45 0.43 0.41 0.41 0.44 0.41 0.40 0.43 0.46 0.43 0.46 0.37 0.22 0.20 0.23 0.20 0.21 0.27 0.27 0.25 0.27 0.28 0.32 0.39 0.29 0.22 0.19 0.17 0.22 0.16 0.15 0.16 0.18 0.20 0.16 0.15 0.14 0.15 0.12 0.16 0.21 0.16 0.17 0.23
0.46 0.44 0.43 0.44 0.43 0.42 0.41 0.41 0.39 0.37 0.40 0.42 0.37 0.43 0.34 0.23 0.22 0.27 0.27 0.29 0.32 0.32 0.25 0.28 0.30 0.32 0.31 0.25 0.25 0.24 0.21 0.23 0.21 0.20 0.19 0.19 0.18 0.16 0.17 0.16 0.12 0.12 0.13 0.15 0.16 0.21 0.22
0.45 0.41 0.42 0.44 0.42 0.42 0.42 0.37 0.35 0.36 0.35 0.39 0.32 0.37 0.40 0.33 0.27 0.39 0.40 0.42 0.42 0.42 0.35 0.36 0.31 0.31 0.34 0.28 0.30 0.29 0.24 0.24 0.22 0.16 0.24 0.18 0.22 0.20 0.19 0.16 0.17 0.15 0.18 0.20 0.21 0.21 0.18